FW6463 Weather Reports


time (UTC)temp
F
wind
direction
speed
knots
gust
knots
rain 1hr
in
rain 24hr
in
rain mn
in
humidity
%
barometer
mb
20260905123530 71 184 0.9 2.6 0.00 0.00 0.00 94 1016.2
20260905122518 71 192 1.7 3.5 0.00 0.00 0.00 95 1016.3
20260905121522 70 186 1.7 2.6 0.00 0.00 0.00 97 1016.3
20260905120527 69 178 0.9 1.7 0.00 0.00 0.00 99 1016.3
20260905115526 69 152 0.9 1.7 0.00 0.00 0.00 99 1016.4
20260905114519 69 180 0.0 1.7 0.00 0.00 0.00 99 1016.4
20260905113523 68 0.0 0.0 0.00 0.00 0.00 99 1016.2
20260905112542 68 0.0 0.0 0.00 0.00 0.00 99 1016.1
20260905111537 67 174 0.0 1.7 0.00 0.00 0.00 99 1016.1
20260905110521 68 151 0.0 1.7 0.00 0.00 0.00 99 1016.1
20260905105519 67 262 0.9 2.6 0.00 0.00 0.00 99 1015.9
20260905104519 67 0.0 0.0 0.00 0.00 0.00 99 1015.8
20260905103517 67 0.0 0.0 0.00 0.00 0.00 99 1015.3
20260905102517 67 0.0 0.0 0.00 0.00 0.00 99 1015.3
20260905101536 67 0.0 0.0 0.00 0.00 0.00 99 1015.3
20260905100532 67 0.0 0.0 0.00 0.00 0.00 99 1015.2
20260905095520 67 0.0 0.9 0.00 0.00 0.00 99 1015.0
20260905094524 67 158 0.0 1.7 0.00 0.00 0.00 99 1015.2
20260905093529 67 161 0.9 1.7 0.00 0.00 0.00 99 1015.1
20260905092536 67 0.0 0.0 0.00 0.00 0.00 99 1015.2
20260905091521 67 180 0.9 1.7 0.00 0.00 0.00 99 1015.2
20260905090526 67 113 0.0 0.9 0.00 0.00 0.00 99 1015.2
20260905085531 67 160 0.9 1.7 0.00 0.00 0.00 99 1015.1
20260905084518 67 186 0.9 1.7 0.00 0.00 0.00 99 1014.9
20260905083522 68 166 0.9 1.7 0.00 0.00 0.00 99 1014.9
20260905082527 68 169 0.9 1.7 0.00 0.00 0.00 99 1015.0
20260905081532 68 158 0.9 2.6 0.00 0.00 0.00 99 1015.0
20260905080519 68 163 0.9 1.7 0.00 0.00 0.00 99 1015.0
20260905075525 68 158 0.0 1.7 0.00 0.00 0.00 99 1015.2
20260905074529 69 161 0.9 1.7 0.00 0.00 0.00 99 1015.2
20260905073516 69 180 0.0 0.9 0.00 0.00 0.00 99 1015.4
20260905072521 69 0.0 0.0 0.00 0.00 0.00 99 1015.4
20260905071606 70 0.0 0.0 0.00 0.00 0.00 99 1015.5
20260905070531 70 161 1.7 2.6 0.00 0.00 0.00 99 1015.6
20260905065518 70 158 0.0 2.6 0.00 0.00 0.00 99 1015.6
20260905064523 70 0.0 0.0 0.00 0.00 0.00 99 1015.8
20260905063527 70 157 1.7 2.6 0.00 0.00 0.00 99 1016.0
20260905062532 69 158 0.9 1.7 0.00 0.00 0.00 99 1015.9
20260905061520 69 0.0 0.0 0.00 0.00 0.00 99 1016.0
20260905060524 69 0.0 0.0 0.00 0.00 0.00 99 1016.1
20260905055529 69 0.0 0.0 0.00 0.00 0.00 99 1016.2
20260905054516 70 0.0 0.0 0.00 0.00 0.00 99 1016.2
20260905053521 70 141 0.9 2.6 0.00 0.00 0.00 99 1016.3
20260905052546 70 165 1.7 2.6 0.00 0.00 0.00 99 1016.5
20260905051530 70 143 0.9 2.6 0.00 0.00 0.00 99 1016.5
20260905050518 70 0.0 0.0 0.00 0.00 0.00 99 1016.5
20260905045522 70 163 0.9 1.7 0.00 0.00 0.00 99 1016.6
20260905044528 70 181 0.9 1.7 0.00 0.00 0.00 99 1016.5
20260905043553 71 180 0.0 1.7 0.00 0.00 0.00 99 1016.5
20260905042520 71 113 0.0 1.7 0.00 0.00 0.00 99 1016.6
20260905041545 71 0.0 0.0 0.00 0.00 0.00 99 1016.6
20260905040529 71 0.0 0.0 0.00 0.00 0.00 99 1016.6
20260905035516 71 124 0.9 1.7 0.00 0.00 0.00 99 1016.6
20260905034541 72 104 1.7 2.6 0.00 0.00 0.00 99 1016.7
20260905033526 71 158 0.9 2.6 0.00 0.01 0.00 99 1016.5
20260905032531 71 134 1.7 2.6 0.00 0.02 0.00 99 1016.4
20260905031538 71 127 0.9 1.7 0.00 0.02 0.00 99 1016.4
20260905030523 71 164 0.9 2.6 0.00 0.02 0.00 99 1016.3
20260905025548 71 0.0 0.0 0.00 0.02 0.00 99 1016.2
20260905024526 71 0.0 0.0 0.00 0.03 0.00 99 1016.2
20260905023519 71 0.0 2.6 0.00 0.03 0.00 99 1016.2
20260905022524 71 162 0.9 1.7 0.00 0.04 0.00 99 1016.1
20260905021524 71 172 0.9 2.6 0.00 0.04 0.00 99 1016.1
20260905020517 71 0.0 0.0 0.00 0.04 0.00 99 1016.0
20260905015541 71 158 1.7 2.6 0.00 0.04 0.00 99 1016.0
20260905014540 72 180 0.9 1.7 0.00 0.04 0.00 99 1016.1
20260905013519 72 157 0.9 1.7 0.00 0.04 0.00 99 1016.1
20260905012518 73 0.0 0.0 0.00 0.04 0.00 99 1016.1
20260905011517 73 0.0 0.0 0.00 0.04 0.00 99 1016.2
20260905010515 73 0.0 0.0 0.00 0.04 0.00 99 1016.2
20260905005533 74 162 0.0 1.7 0.00 0.04 0.00 98 1016.2
20260905004520 74 0.0 0.0 0.00 0.04 0.00 98 1016.1
20260905003525 74 0.0 0.0 0.00 0.04 0.00 97 1016.2
20260905002529 75 0.0 0.0 0.00 0.04 0.00 96 1015.7
20260905001536 76 0.0 0.0 0.00 0.04 0.00 94 1015.7
20260905000521 76 0.0 0.0 0.00 0.04 0.00 94 1015.7
20260904235546 78 174 0.9 1.7 0.00 0.04 0.00 91 1015.9
20260904234531 79 0.0 0.0 0.00 0.04 0.00 87 1015.8
20260904233538 80 0.0 0.0 0.00 0.04 0.00 84 1015.7
20260904232523 80 130 0.0 0.9 0.00 0.04 0.00 83 1015.8
20260904231528 81 249 2.6 3.5 0.00 0.04 0.00 82 1015.9
20260904230535 81 257 2.6 4.3 0.00 0.04 0.00 82 1016.0
20260904225520 81 242 3.5 5.2 0.00 0.04 0.00 81 1015.8
20260904224525 82 250 3.5 4.3 0.00 0.04 0.00 80 1015.8
20260904223530 83 292 3.5 5.2 0.00 0.04 0.00 79 1015.9
20260904222516 84 276 2.6 5.2 0.00 0.04 0.00 77 1015.8
20260904221521 85 257 2.6 5.2 0.00 0.04 0.00 75 1015.7
20260904220526 85 259 2.6 4.3 0.00 0.04 0.00 75 1015.7
20260904215532 86 282 3.5 5.2 0.00 0.04 0.00 75 1016.0
20260904214518 85 300 3.5 5.2 0.00 0.04 0.00 75 1016.0
20260904213523 85 279 2.6 4.3 0.00 0.04 0.00 75 1016.1
20260904212549 85 292 4.3 6.1 0.00 0.04 0.00 75 1016.3
20260904211533 86 300 4.3 7.8 0.00 0.04 0.00 73 1016.4
20260904210519 88 4.3 4.3 0.00 0.04 0.00 71 1016.3
20260904210022 88 299 3.5 6.1 0.00 0.04 0.00 74 1016.2
20260904205028 88 288 3.5 5.2 0.00 0.04 0.00 74 1016.3
20260904204053 87 338 5.2 7.0 0.00 0.04 0.00 74 1016.2
20260904203019 88 285 4.3 6.1 0.00 0.04 0.00 73 1015.9
20260904202024 86 272 3.5 7.0 0.00 0.04 0.00 76 1016.0
20260904201029 86 282 4.3 7.8 0.00 0.04 0.00 76 1016.3
20260904200057 86 261 2.6 3.5 0.00 0.04 0.00 75 1016.4
20260904195021 87 273 2.6 4.3 0.00 0.04 0.00 74 1016.4
20260904194026 86 300 0.9 2.6 0.00 0.04 0.00 79 1016.5
20260904193030 87 258 2.6 3.5 0.00 0.04 0.00 77 1016.7
20260904192017 85 279 1.7 2.6 0.00 0.04 0.00 78 1016.8
20260904191023 75 297 3.5 5.2 0.00 0.04 0.00 70 1016.7
20260904190027 88 317 3.5 6.1 0.00 0.04 0.00 73 1016.8
20260904185033 89 289 3.5 6.1 0.00 0.04 0.00 72 1017.1
20260904184019 87 302 3.5 5.2 0.00 0.04 0.00 75 1017.4
20260904183025 87 275 1.7 3.5 0.00 0.04 0.00 76 1017.6
20260904182029 87 296 4.3 6.1 0.00 0.04 0.00 75 1017.8
20260904181016 87 298 3.5 5.2 0.00 0.04 0.00 75 1017.9
20260904180021 87 1.7 1.7 0.00 0.04 0.00 77 1018.1
20260904175025 87 299 4.3 5.2 0.00 0.04 0.00 76 1018.0
20260904174031 87 297 3.5 5.2 0.00 0.04 0.00 75 1018.0
20260904173018 86 294 4.3 6.1 0.00 0.04 0.00 76 1018.1
20260904172022 87 315 4.3 7.8 0.00 0.04 0.00 76 1018.1
20260904171027 86 264 2.6 3.5 0.00 0.04 0.00 78 1018.1
20260904170027 85 264 3.5 5.2 0.00 0.04 0.00 78 1018.1
20260904165019 85 230 3.5 5.2 0.00 0.04 0.00 77 1018.3
20260904164024 85 302 3.5 5.2 0.00 0.04 0.00 76 1018.3
20260904163023 85 266 2.6 4.3 0.00 0.04 0.00 76 1018.3
20260904162016 84 318 5.2 7.8 0.00 0.04 0.00 77 1018.5
20260904161021 83 299 3.5 6.1 0.00 0.04 0.00 79 1018.6
20260904160020 84 262 3.5 4.3 0.00 0.04 0.00 78 1018.6
20260904155019 82 11 2.6 3.5 0.00 0.04 0.00 79 1018.6
20260904154018 83 285 3.5 5.2 0.00 0.04 0.00 79 1018.6
20260904153016 83 249 3.5 6.1 0.00 0.04 0.00 80 1018.6
20260904152015 82 299 3.5 5.2 0.00 0.04 0.00 80 1018.8
20260904151033 81 290 2.6 4.3 0.00 0.04 0.00 81 1018.6
20260904150040 81 264 1.7 4.3 0.00 0.04 0.00 82 1018.8
20260904145044 80 260 2.6 4.3 0.00 0.04 0.00 83 1018.8
20260904144050 80 255 3.5 5.2 0.00 0.06 0.00 84 1018.8
20260904143016 80 311 3.5 4.3 0.00 0.06 0.00 84 1018.8
20260904142101 80 253 3.5 4.3 0.00 0.08 0.00 84 1018.6
20260904141026 78 344 1.7 2.6 0.00 0.08 0.00 88 1018.6
20260904140031 78 304 3.5 4.3 0.00 0.12 0.00 87 1018.6
20260904135058 77 295 3.5 6.1 0.00 0.12 0.00 90 1018.6
20260904134043 75 180 0.9 2.6 0.00 0.12 0.00 96 1018.7
20260904133048 73 0.0 0.0 0.00 0.12 0.00 99 1018.8
20260904132033 72 0.0 0.0 0.00 0.12 0.00 99 1018.6
20260904131020 72 158 0.0 0.9 0.00 0.12 0.00 99 1018.6
20260904130025 71 90 0.0 1.7 0.00 0.12 0.00 99 1018.8
20260904125029 70 203 0.0 0.9 0.00 0.12 0.00 99 1019.0
20260904124016 70 0.0 0.0 0.00 0.12 0.00 99 1019.1